Regional Weather Roundup
Issued by NWS Nashville, TN

Home | Current Version | Previous Version | Text Only | Print | Product List | Glossary On
Versions: 1 2 3 4 5 6 7 8 9 10 11 12 13 14 15 16 17 18 19 20 21 22 23 24 25 26 27
000
ASUS44 KOHX 131710
RWROHX
MIDDLE TENNESSEE HOURLY WEATHER ROUNDUP
NATIONAL WEATHER SERVICE NASHVILLE TN
1100 AM CST WED DEC 13 2017

NOTE: "FAIR" INDICATES FEW OR NO CLOUDS BELOW 12,000 FEET WITH
NO SIGNIFICANT WEATHER AND/OR OBSTRUCTIONS TO VISIBILITY.

* THESE REPORTS ARE NOT UNDER NWS QUALITY CONTROL AND MAY NOT
  REPORT WEATHER SUCH AS PRECIPITATION AND FOG.


TNZ005>011-023>034-057-059-062>066-078-080-131800
...NORTHERN MIDDLE TENNESSEE...

CITY           SKY/WX    TMP DP  RH WIND       PRES   REMARKS
CLARKSVILLE    SUNNY     43  11  27 SW16G28   29.86F
CROSSVILLE     SUNNY     35   7  31 S8        29.91F WCI  29
GALLATIN       SUNNY     41  10  28 S8G18     29.93F
DICKSON          N/A     41  12  30 S15       29.87F
NASHVILLE      MOSUNNY   42  12  29 S14G20    29.93F
PORTLAND       SUNNY     41  12  30 S22       29.86F
SMYRNA         SUNNY     42  13  30 S10G21    29.94F
SPARTA         SUNNY     37   9  30 S13       29.92F WCI  29
SPRINGFIELD    SUNNY     41  14  33 SW17      29.86F
WEST NASHVILLE SUNNY     43  12  28 SW14      29.89F
$$
TNZ056-058-060-061-075>077-079-093>097-131800
...SOUTHERN MIDDLE TENNESSEE...

CITY           SKY/WX    TMP DP  RH WIND       PRES   REMARKS
COLUMBIA       SUNNY     43  14  31 SW15G23   29.93F
FAYETTEVILLE   SUNNY     41  12  30 S14       29.97F
MCMINNVILLE    SUNNY     39   9  28 SW13G18   29.94F WCI  32
MURFREESBORO   SUNNY     39  12  33 S9        29.96F WCI  33
PULASKI        SUNNY     43  16  33 S14G21    29.97F
SHELBYVILLE    SUNNY     41  12  30 SW14G23   29.95F
TULLAHOMA      SUNNY     39  10  30 S13       29.95F WCI  32
WINCHESTER     SUNNY     41   9  26 S9        29.98F
$$


...KEY TO REMARKS...
VSB - VISIBILITY IN MILES
WCI - WIND CHILL INDEX
HX  - HEAT INDEX





USA.gov is the U.S. government's official web portal to all federal, state and local government web resources and services.